Voltar ao catálogo

CZ-6A DEB

AtivoPO
NORAD 61266·DEBRIS·🇨🇳 China

Lançado Aug 6, 2024 de Taiyuan Satellite Launch Center

Loading…

Próximas Passagens (próximas 24 horas)

TLE

AtualizadoSource: Space-Track

Época: Sep 14, 2026, 08:45 UTC

1 61266U 24140SB  26257.36459137  .00009334  00000-0  16505-2 0  9990
2 61266  88.5779 219.6694 0044651 231.0583 128.6650 14.66657209108829

Acompanhe CZ-6A DEB em tempo real com AllMySat

Download on the App Store